CDT,Max TemperatureF,Mean TemperatureF,Min TemperatureF,Max Dew PointF,MeanDew PointF,Min DewpointF,Max Humidity, Mean Humidity, Min Humidity, Max Sea Level PressureIn, Mean Sea Level PressureIn, Min Sea Level PressureIn, Max VisibilityMiles, Mean VisibilityMiles, Min VisibilityMiles, Max Wind SpeedMPH, Mean Wind SpeedMPH, Max Gust SpeedMPH,PrecipitationIn, CloudCover, Events, WindDirDegrees
2013-7-1,79,69,59,53,49,46,72,54,36,30.04,30.00,29.97,10,10,10,20,8,30,0.00,1,,30
2013-7-2,75,68,60,55,52,49,72,55,38,30.06,30.04,30.01,10,10,10,16,8,23,0.00,2,,43
2013-7-3,79,69,59,56,53,49,80,58,35,30.08,30.05,30.02,10,10,9,9,3,14,0.00,0,,340
2013-7-4,85,74,63,63,59,56,84,64,43,30.09,30.05,30.01,10,10,7,15,7,19,0.00,0,,182
2013-7-5,85,75,64,67,62,58,93,67,40,30.08,30.05,30.00,10,8,2,13,5,18,0.00,1,,176
2013-7-6,86,75,64,68,65,61,93,72,51,30.06,30.02,29.98,10,9,4,14,6,19,0.00,1,,173
2013-7-7,90,79,68,70,67,62,84,66,47,30.02,29.99,29.95,10,10,10,17,9,23,0.00,0,,199
2013-7-8,86,80,73,74,71,68,88,73,57,30.07,30.02,29.98,10,8,2,21,8,24,0.37,4,Rain-Thunderstorm,204
2013-7-9,90,84,77,76,74,73,91,77,63,30.00,29.96,29.88,10,10,7,16,8,18,0.02,3,,210
2013-7-10,88,78,68,74,68,59,88,69,50,30.04,29.92,29.84,10,10,7,14,5,20,0.00,2,,334
2013-7-11,82,73,63,62,57,53,93,67,40,30.12,30.07,30.02,10,10,10,14,5,18,0.00,1,,45
2013-7-12,85,72,58,58,54,50,84,58,32,30.14,30.10,30.06,10,10,10,10,4,14,0.00,0,,80
2013-7-13,86,73,60,62,58,53,87,62,37,30.14,30.10,30.07,10,10,10,13,5,17,0.00,0,,102
2013-7-14,89,79,68,69,65,62,81,63,44,30.17,30.14,30.09,10,10,10,13,7,17,0.00,0,,118
2013-7-15,91,82,73,73,71,69,87,72,56,30.25,30.21,30.17,10,10,9,14,5,16,0.00,2,,94
2013-7-16,93,83,73,73,71,69,93,71,49,30.31,30.27,30.23,10,10,6,14,5,16,0.00,1,,187
2013-7-17,95,85,74,73,71,69,93,70,46,30.32,30.26,30.19,10,10,9,10,3,13,0.00,1,,243
2013-7-18,96,86,75,74,72,69,87,65,43,30.20,30.10,29.99,10,10,9,14,6,18,0.00,0,,217
2013-7-19,97,86,75,72,70,66,87,63,38,29.98,29.89,29.81,10,9,4,22,10,26,0.00,0,,226
2013-7-20,89,80,70,70,65,59,82,60,38,29.92,29.87,29.83,10,10,10,14,5,18,0.02,2,,2
2013-7-21,81,74,67,72,68,64,97,80,62,29.94,29.90,29.85,10,10,5,10,4,13,0.10,2,Rain,150
2013-7-22,89,78,67,72,68,65,100,75,50,29.87,29.83,29.76,10,6,0,21,5,33,0.14,4,Fog-Rain,239
2013-7-23,83,74,65,67,63,58,93,75,56,29.94,29.85,29.78,10,10,9,14,7,18,0.00,1,,331
2013-7-24,78,69,59,56,53,49,87,64,40,30.05,30.02,29.96,10,10,10,15,5,19,0.00,0,,37
2013-7-25,82,69,56,59,54,51,86,63,39,30.12,30.08,30.05,10,10,10,10,3,13,0.00,0,,189
2013-7-26,73,67,60,67,62,57,93,83,73,30.05,29.99,29.93,10,8,1,15,7,20,0.64,6,Rain,217
2013-7-27,69,63,56,56,51,46,93,69,45,29.99,29.97,29.94,10,10,10,18,7,26,0.00,4,,309
2013-7-28,74,63,51,53,50,46,83,65,46,30.06,30.00,29.95,10,10,10,17,7,25,0.00,2,,287
2013-7-29,78,65,52,57,52,49,89,65,40,30.17,30.13,30.07,10,10,10,12,3,14,0.00,1,,254
2013-7-30,69,67,64,67,63,53,93,75,57,30.15,30.08,30.04,10,4,0,12,6,16,0.50,8,Fog-Rain,134
2013-7-31,76,72,67,68,66,65,97,83,69,30.05,30.03,29.99,10,6,0,9,4,13,0.00,6,Fog,303